Regional Weather Roundup
Issued by NWS

Home | Current Version | Previous Version | Graphics & Text | Print | Product List | Glossary On
Versions: 1 2 3 4 5 6 7 8 9 10 11 12 13 14 15 16 17 18 19 20 21 22 23 24 25 26 27 28 29 30 31 32 33 34 35 36 37 38 39 40 41 42 43 44 45 46 47 48 49 50
000
ASUS43 KIND 291709
RWRIN

WEATHER ROUNDUP FOR INDIANA
NATIONAL WEATHER SERVICE INDIANAPOLIS IN
100 PM EDT FRI AUG 29 2014

NOTE: "FAIR" INDICATES FEW OR NO CLOUDS BELOW 12,000 FEET WITH NO
SIGNIFICANT WEATHER AND/OR OBSTRUCTIONS TO VISIBILITY.

* - STATION DOES NOT REPORT WEATHER SUCH AS PRECIPITATION OR FOG.

+ - STATION NOT QUALITY CONTROLLED BY THE NATIONAL WEATHER SERVICE.
    USE DATA WITH CAUTION...ESPECIALLY DEWPOINT AND RELATIVE
    HUMIDITY OBSERVATIONS.

INZ001>003-010>013-019-020-291800-
NORTHWEST INDIANA

CITY           SKY/WX    TMP DP  RH WIND       PRES   REMARKS
KNOX *+        PTSUNNY   77  67  69 S10       30.02F
LA PORTE +     RAIN      73  67  80 S6        30.03F
MICHIGAN CITY+ MOSUNNY   77  64  65 S9G18     30.02F
MONTICELLO +   PTSUNNY   77  69  76 S7        30.03S
RENSSELAER +   CLOUDY    81  73  78 S7        30.01F
VALPARAISO     MOSUNNY   79  69  71 S9        30.02F

$$

LMZ046-743>745-291800-
SOUTHERN LAKE MICHIGAN

STATION/POSITION TIME  TEMP WIND        PRES
                       AIR  DIR/SP/G
                 (UTC) (F)  (DEG/KT/KT) (MB)
MICHIGAN CITY    1700   77  150/ 12/ 15   N/A

$$

INZ004-005-014>016-021>024-291800-
NORTH CENTRAL INDIANA

CITY           SKY/WX    TMP DP  RH WIND       PRES   REMARKS
ELKHART        CLOUDY    73  64  73 SE9       30.05
GOSHEN         PTSUNNY   79  66  64 S12       30.05F
LOGANSPORT +   PTSUNNY   77  64  65 SE8       30.05F
PERU/GRISSOM   PTSUNNY   78  72  80 SE8       30.05F
ROCHESTER +    MOSUNNY   81  70  69 SE7       30.05F
SOUTH BEND     PTSUNNY   79  68  69 SE13      30.03F
WARSAW +       PTSUNNY   79  66  65 S7        30.06F

$$

INZ006>009-017-018-025>027-291800-
NORTHEAST INDIANA

CITY           SKY/WX    TMP DP  RH WIND       PRES   REMARKS
ANGOLA *+      MOSUNNY   75  63  64 S10       30.07F
AUBURN +       MOSUNNY   77  61  57 S3        30.09F
FORT WAYNE     PTSUNNY   76  66  71 S6        30.09F
HUNTINGTON +   PTSUNNY   76  66  71 SE5       30.07F

$$

INZ028-029-035-036-043>045-051>053-291800-
WEST CENTRAL INDIANA

CITY           SKY/WX    TMP DP  RH WIND       PRES   REMARKS
GREENCASTLE +  MOSUNNY   77  70  78 SE7       30.04F
LAFAYETTE      CLOUDY    76  68  76 S7        30.02F
TERRE HAUTE    SUNNY     84  74  71 VRB7      30.01F

$$

INZ030>032-037>040-046>048-054>057-064-065-291800-
CENTRAL INDIANA

CITY           SKY/WX    TMP DP  RH WIND       PRES   REMARKS
ANDERSON       PTSUNNY   75  64  69 SE12G17   30.09
CP ATTERBURY + MOSUNNY   81  68  65 SE5       30.05F
COLUMBUS       SUNNY     82  70  65 SE5       30.05
FRANKFORT +    CLOUDY    73  69  89 SE7       30.06F
INDIANAPOLIS   CLOUDY    73  66  78 E6        30.04F
-EAGLE CREEK   CLOUDY    74  66  76 SE5       30.05F
KOKOMO *+      PTSUNNY   75  66  73 S10       30.06F
MARION +       PTSUNNY   76  64  65 S10       30.08S
MT COMFORT *+  CLOUDY    72  70  94 SE5       30.07F
SHELBYVILLE    PTSUNNY   78  67  68 E6        30.05F
ZIONSVILLE +   CLOUDY    74  65  73 S6        30.07F

$$

INZ033-034-041-042-049-050-058-059-291800-
EAST CENTRAL INDIANA

CITY           SKY/WX    TMP DP  RH WIND       PRES   REMARKS
MUNCIE         CLOUDY    78  64  61 SE10      30.08F

$$

INZ060-061-067>069-081>083-085>088-291800-
SOUTHWEST INDIANA

CITY           SKY/WX    TMP DP  RH WIND       PRES   REMARKS
EVANSVILLE     MOSUNNY   86  74  67 SE3       30.00F
WASHINGTON +   MOSUNNY   85  75  71 SE6       30.00F

$$

INZ062-063-066-070>080-084-089>092-291800-
SOUTH CENTRAL AND SOUTHEAST INDIANA

CITY           SKY/WX    TMP DP  RH WIND       PRES   REMARKS
BLOOMINGTON    MOSUNNY   85  71  63 S8        30.03F
SEYMOUR +      SUNNY     84  61  45 SE5       30.03

$$



USA.gov is the U.S. government's official web portal to all federal, state and local government web resources and services.